Back to catalog

THORAD AGENA D DEB

AliveSSO
NORAD 4920·DEBRIS·🇺🇸 United States

Launched Apr 8, 1970 from Vandenberg Space Force Base

Loading…

Next Passes

TLE

Source: Space-Track
1  4920U 70025FS  26224.23793513  .00000088  00000-0  19726-3 0  9992
2  4920  99.4303 115.6108 0088362 227.2001 256.9855 13.50559176761138

Track THORAD AGENA D DEB in real time with AllMySat

Download on the App Store